Flag for U.S.A. Weather past 2 weeks in Warren, Michigan, U.S.A.

Now
31 °F

Overcast.


Feels Like: 23 °F
Forecast: 25 / 36 °F
Wind: 8 mph from Southeast

Location: Detroit City Airport

Current Time: Jan 29, 2015 at 8:25:16 AM

Latest Report: Jan 29, 2015 at 7:53 AM


Visibility: 10 mi

Pressure: 29.85 "Hg

Humidity: 64%

Dew point: 20 °F

Location of WarrenLocation

Historic Weather in Warren — Graph

°F

Warren temperature yesterday

Maximum temperature yesterday: 29 °F (at 1:53 PM)
Minimum temperature yesterday: 14 °F (at 3:53 AM)
Average temperature yesterday: 22 °F

Past Weeks' High & Low Weather Summary

 TemperatureHumidityPressure
High44 °F (Jan 17, 11:53 PM)86% (Jan 18, 10:53 AM)30.93 "Hg (Jan 18, 10:53 AM)
Low7 °F (Jan 14, 7:53 AM)45% (Jan 26, 3:53 PM)28.07 "Hg (Jan 28, 7:53 PM)
Average26 °F68%30.03 "Hg
* Reported Jan 14 6:53 AM — Jan 29 6:53 AM, Warren, Weather by CustomWeather, © 2014

Note: Actual official high and low records may vary slightly from our data, if they occured in-between our weather recording intervals... More about our weather records

Advertising

Warren weather history for previous 24 hours

 ConditionsComfort  
Time TempWeatherWind HumidityBarometerVisibility
6:53 AM
Jan 29
31 °FMostly cloudy.9 mph59%29.89 "Hg10 mi
5:53 AM30 °FLight snow. Overcast.8 mph61%29.92 "Hg8 mi
4:53 AM29 °FOvercast.13 mph61%29.97 "Hg10 mi
3:53 AM28 °FMostly cloudy.9 mph61%30.02 "Hg10 mi
2:53 AM28 °FOvercast.13 mph58%30.06 "Hg10 mi
1:53 AM28 °FOvercast.13 mph56%30.10 "Hg10 mi
12:53 AM27 °FPassing clouds.10 mph58%30.13 "Hg10 mi
11:53 PM
Jan 28
26 °FClear.10 mph60%30.16 "Hg10 mi
10:53 PM25 °FClear.9 mph66%30.21 "Hg10 mi
9:53 PM25 °FClear.10 mph63%30.22 "Hg10 mi
8:53 PM25 °FClear.10 mph63%30.26 "Hg10 mi
7:53 PM25 °FClear.12 mph66%28.07 "Hg10 mi
6:53 PM24 °FClear.7 mph68%30.30 "Hg10 mi
5:53 PM25 °FPassing clouds.8 mph60%28.09 "Hg10 mi
4:53 PM25 °FSunny.9 mph60%28.09 "Hg10 mi
3:53 PM27 °FSunny.10 mph51%30.32 "Hg10 mi
2:53 PM28 °FSunny.9 mph53%30.31 "Hg10 mi
1:53 PM29 °FSunny.9 mph47%30.33 "Hg10 mi
12:53 PM28 °FSunny.8 mph51%30.35 "Hg10 mi
11:53 AM27 °FSunny.3 mph51%30.37 "Hg10 mi
10:53 AM24 °FSunny.No wind57%30.38 "Hg10 mi
9:53 AM20 °FSunny.No wind71%28.19 "Hg10 mi
8:53 AM17 °FSunny.No wind74%30.39 "Hg10 mi
Weather by CustomWeather, © 2014

See weather overviewHow to use our weather pages